Satellite-Ground Cal/Val Site Overpasses Predictions

Prediction of Satellite NPP Overpassing Cal/Val Site: Antarctic Dome C

Ground Cal/Val Site Location: Latitude: -75.10, Longitude: 123.35; Satellite-Ground Site NADIR distance within 100 km.

Table of predicted overpasses for the next 14.0 days since TLE Epoch: 10/12/2024
Interval Starting Time Ending Time Minimum Distance Time Minimum Distance (km)
1 10/12/2024 07:30:42 10/12/2024 07:31:12 10/12/2024 07:30:57 3.15
2 10/15/2024 14:54:14 10/15/2024 14:54:42 10/15/2024 14:54:28 18.81
3 10/16/2024 14:35:32 10/16/2024 14:35:46 10/16/2024 14:35:39 87.91
4 10/17/2024 07:37:05 10/17/2024 07:37:32 10/17/2024 07:37:19 33.42
5 10/18/2024 07:18:21 10/18/2024 07:18:39 10/18/2024 07:18:30 76.72
6 10/20/2024 15:00:36 10/20/2024 15:01:00 10/20/2024 15:00:48 56.24
7 10/21/2024 14:41:46 10/21/2024 14:42:11 10/21/2024 14:41:59 52.78
8 10/22/2024 07:43:28 10/22/2024 07:43:49 10/22/2024 07:43:38 68.89
9 10/23/2024 07:24:35 10/23/2024 07:25:02 10/23/2024 07:24:48 39.20
